THOR ABLESTAR DEB, 2620

Orbit data source: Space-Track

THOR ABLESTAR DEB, 2620 is space debris in LEO originally from a launch on Thu, 05 Dec 1963 UTC launched from the Air Force Western Test Range (AFWTR). Debris objects in space refer to the collection of defunct objects orbiting the Earth. Examples of debris include non-operational satellites, rocket bodies, and fragments generated from explosions, collisions, or faulty payload assembly.

Loading next visibility...
Identifier
2620, 1963-049H
Orbit
LEO
Country
Flag of USUS
Related business
Manufacturer
Unknown
Mission
Spacecraft
Bus & Motor
Unknown
Mass
Unknown
Launch date (UTC)
1963-12-05 (62 years ago)
Launch vehicle
Unknown
Launch site
Air Force Western Test Range (AFWTR)
Object type
Payload
Rocket body
Debris
Shape & HBR
Unknown
Radar Cross Section
Small (<0.1 m²)

Expand to show TLE details & history
Last TLE update: 14 hours ago

TLE from 14 hours ago
0 THOR ABLESTAR DEB
1 02620U 63049H   25259.44492789  .00000261  00000-0  33890-3 0  9997
2 02620  89.9099  74.8702 0015478 173.3416 215.4822 13.59585146 53193
Epoch: 2025-09-16T10:40Z
TLE epoch observation values (Epoch: 2025-09-16T10:40:41.769Z)
Latitude
28.76349°
Longitude
-80.88977°
Altitude
1,050.181 km
Speed
7.325 km/s
True Right ascension
04h 59m 40s
True Declination
28° 37' 28"
Sunlit
Object was in daylight at epoch
Visualization orbit readout
Latitude
Unknown
Longitude
Unknown
Altitude
Unknown
Speed
Unknown
Apparent Right ascension
Unknown
Apparent Declination
Unknown
Sunlit
N/A
Visualization observer readout
Local Sidereal Time
17:39:42
Azimuth
Unknown
Elevation
Unknown
Doppler factor
Unknown
Orbital elements
Apogee altitude
1,045.709 km
Perigee altitude
1,022.763 km
Semi-major axis
7,412.373 km
Eccentricity
0.00155
Inclination
89.9099°
RAAN
74.8702°
Arg. of periapsis
173.3416°
True anomaly
215.37941°
Mean anomaly
215.4822°
Eccentric anomaly
215.43079°
Mean motion
3.40101 °/min
Orbital period
105.85 mins
BSTAR
0.0003389
Loading maneuver chart data...
Computing Atmospheric mass density...
Loading historical data...
Loading historical data...
Loading historical data...
Loading historical data...
Loading historical data...
Loading historical data...
Loading historical data...

Documentation

Showing up to 5 results
|